Location: Hysolar-Haus
(48.7436°N, 9.0965°E)
Time: 03:17:45
(UTC+00:00)

Altair - All Passes

Search period start: 13 November 2019 00:00
Search period end: 23 November 2019 00:00
Orbit: 1502 x 1682 km, 47.2° (Epoch: 12 November)

Date Brightness Start Highest point End Pass type
(mag) Time Alt. Az. Time Alt. Az. Time Alt. Az.
13 Nov - 02:29:14 10° S 02:36:08 25° SE 02:43:05 10° E visible
13 Nov - 04:30:27 10° SW 04:39:23 59° SSE 04:48:30 10° ENE visible
13 Nov - 06:34:29 10° W 06:43:44 83° S 06:53:17 10° E daylight
13 Nov - 08:39:03 10° W 08:48:16 67° SSW 08:57:49 10° ESE daylight
13 Nov - 10:43:57 10° W 10:51:55 32° SW 11:00:08 10° SSE daylight
14 Nov - 02:04:34 10° S 02:11:08 23° SE 02:17:44 10° E visible
14 Nov - 04:05:25 10° SW 04:14:16 57° SSE 04:23:19 10° ENE visible
14 Nov - 06:09:21 10° W 06:18:34 82° S 06:28:05 10° E daylight
14 Nov - 08:13:54 10° W 08:23:07 69° SSW 08:32:40 10° ESE daylight
14 Nov - 10:18:43 10° W 10:26:51 34° SW 10:35:14 10° SSE daylight
15 Nov - 01:39:56 10° S 01:46:08 21° SE 01:52:21 10° E visible
15 Nov - 03:40:23 10° SW 03:49:11 54° SSE 03:58:08 10° ENE visible
15 Nov - 05:44:12 10° W 05:53:25 82° S 06:02:53 10° E visible
15 Nov - 07:48:46 10° W 07:57:59 71° SSW 08:07:31 10° ESE daylight
15 Nov - 09:53:31 10° WNW 10:01:47 36° SW 10:10:19 10° SSE daylight
16 Nov - 01:15:23 10° SSE 01:21:09 19° SE 01:26:55 10° E visible
16 Nov - 03:15:22 10° SW 03:24:06 51° SSE 03:32:56 10° ENE visible
16 Nov - 05:19:04 10° WSW 05:28:16 81° S 05:37:41 10° E visible
16 Nov - 07:23:37 10° W 07:32:50 73° SSW 07:42:21 10° ESE daylight
16 Nov - 09:28:19 10° WNW 09:36:43 39° SW 09:45:23 10° SSE daylight
16 Nov - 11:37:03 10° WSW 11:39:20 11° WSW 11:41:38 10° SW daylight
17 Nov - 00:50:53 10° SSE 00:56:09 17° SE 01:01:25 10° E visible
17 Nov - 02:50:22 10° SW 02:59:01 49° SSE 03:07:45 10° ENE visible
17 Nov - 04:53:55 10° WSW 05:03:07 80° S 05:12:30 10° E visible
17 Nov - 06:58:29 10° W 07:07:41 75° SSW 07:17:12 10° ESE daylight
17 Nov - 09:03:08 10° WNW 09:11:39 41° SW 09:20:25 10° SSE daylight
17 Nov - 11:10:49 10° WSW 11:14:21 13° SW 11:17:57 10° SSW daylight
18 Nov - 00:26:31 10° SSE 00:31:11 15° SE 00:35:50 10° E visible
18 Nov - 02:25:24 10° SW 02:33:57 46° SE 02:42:34 10° ENE visible
18 Nov - 04:28:48 10° WSW 04:37:58 78° S 04:47:19 10° E visible
18 Nov - 06:33:20 10° W 06:42:32 77° SSW 06:52:01 10° ESE daylight
18 Nov - 08:37:58 10° WNW 08:46:34 44° SW 08:55:26 10° SSE daylight
18 Nov - 10:44:58 10° W 10:49:22 14° SW 10:53:50 10° SSW daylight
19 Nov - 00:02:18 10° SSE 00:06:13 13° SE 00:10:06 10° E visible
19 Nov - 02:00:26 10° SSW 02:08:53 43° SE 02:17:22 10° ENE visible
19 Nov - 04:03:41 10° WSW 04:12:50 77° SSE 04:22:08 10° E visible
19 Nov - 06:08:11 10° W 06:17:23 78° SSW 06:26:51 10° ESE daylight
19 Nov - 08:12:48 10° WNW 08:21:29 46° SW 08:30:26 10° SE daylight
19 Nov - 10:19:19 10° W 10:24:22 16° SW 10:29:31 10° SSW daylight
19 Nov - 23:38:22 10° SE 23:41:15 12° ESE 23:44:07 10° ESE visible
20 Nov - 01:35:29 10° SSW 01:43:49 41° SE 01:52:10 10° ENE visible
20 Nov - 03:38:33 10° WSW 03:47:41 75° SSE 03:56:57 10° E visible
20 Nov - 05:43:03 10° W 05:52:14 80° S 06:01:41 10° ESE visible
20 Nov - 07:47:38 10° WNW 07:56:23 49° SSW 08:05:24 10° SE daylight
20 Nov - 09:53:48 10° W 09:59:22 18° SW 10:05:03 10° SSW daylight
20 Nov - 23:15:23 10° SE 23:16:17 10° ESE 23:17:12 10° ESE night (unlit)
21 Nov - 01:10:34 10° SSW 01:18:46 38° SE 01:26:58 10° ENE visible
21 Nov - 03:13:26 10° WSW 03:22:33 73° SSE 03:31:47 10° E visible
21 Nov - 05:17:54 10° W 05:27:06 81° S 05:36:30 10° ESE visible
21 Nov - 07:22:29 10° WNW 07:31:18 52° SSW 07:40:22 10° SE daylight
21 Nov - 09:28:21 10° W 09:34:22 19° SW 09:40:31 10° S daylight
22 Nov - 00:45:40 10° SSW 00:53:43 36° SE 01:01:45 10° ENE visible
22 Nov - 02:48:19 10° WSW 02:57:25 71° SSE 03:06:37 10° E visible
22 Nov - 04:52:45 10° W 05:01:56 82° S 05:11:19 10° E visible
22 Nov - 06:57:20 10° WNW 07:06:12 54° SSW 07:15:19 10° SE daylight
22 Nov - 09:02:57 10° W 09:09:21 21° SW 09:15:55 10° S daylight
